Location: Lancaster
(34.6980°N, 118.1360°W)
Time: 11:30:45
(UTC-08:00)

Vanguard 2 Rocket - All Passes

Search period start: 16 January 2018 00:00
Search period end: 26 January 2018 00:00
Orbit: 556 x 3326 km, 32.9° (Epoch: 15 January)

Date Brightness Start Highest point End Pass type
(mag) Time Alt. Az. Time Alt. Az. Time Alt. Az.
16 Jan - 05:12:11 10° SSE 05:15:09 11° SSE 05:17:49 10° SE visible
16 Jan - 07:21:12 10° SW 07:30:13 30° SSE 07:35:58 10° E daylight
16 Jan - 09:36:26 10° WSW 09:43:56 59° S 09:48:35 10° E daylight
16 Jan - 11:51:49 10° W 11:56:48 69° S 12:00:43 10° ESE daylight
16 Jan - 14:05:51 10° W 14:09:11 26° SSW 14:12:49 10° SE daylight
17 Jan - 06:20:46 10° SSW 06:30:16 25° SSE 06:36:37 10° ESE visible
17 Jan - 08:35:31 10° WSW 08:44:33 51° SSE 08:49:53 10° E daylight
17 Jan - 10:51:36 10° W 10:57:46 74° S 11:01:56 10° E daylight
17 Jan - 13:06:18 10° W 13:10:18 39° SSW 13:14:02 10° SE daylight
18 Jan - 05:20:44 10° SSW 05:30:00 20° SSE 05:36:42 10° ESE visible
18 Jan - 07:34:25 10° SW 07:44:56 44° SSE 07:51:05 10° E daylight
18 Jan - 09:50:53 10° WSW 09:58:34 72° S 10:03:17 10° E daylight
18 Jan - 12:06:30 10° W 12:11:25 55° SSW 12:15:16 10° ESE daylight
18 Jan - 14:21:24 10° WSW 14:23:40 15° SSW 14:26:01 10° S daylight
19 Jan - 04:21:37 10° S 04:29:27 16° SSE 04:35:42 10° ESE visible
19 Jan - 06:33:16 10° SW 06:44:59 37° SSE 06:52:05 10° E visible
19 Jan - 08:49:43 10° WSW 08:59:12 66° S 09:04:38 10° E daylight
19 Jan - 11:06:15 10° W 11:12:24 70° S 11:16:35 10° ESE daylight
19 Jan - 13:21:18 10° W 13:24:45 24° SSW 13:27:59 10° SSE daylight
20 Jan - 03:25:15 10° SSE 03:28:38 11° SE 03:31:45 10° SE visible
20 Jan - 05:32:21 10° SSW 05:44:44 31° SSE 05:52:43 10° E visible
20 Jan - 07:48:13 10° WSW 07:59:34 58° SSE 08:05:55 10° E daylight
20 Jan - 10:05:29 10° W 10:13:14 76° S 10:17:57 10° E daylight
20 Jan - 12:21:15 10° W 12:25:55 38° SSW 12:29:37 10° SE daylight
21 Jan - 04:31:53 10° SSW 04:44:10 25° SSE 04:52:48 10° E visible
21 Jan - 06:46:36 10° SW 06:59:38 51° SSE 07:07:04 10° E daylight
21 Jan - 09:04:11 10° W 09:13:50 76° S 09:19:19 10° E daylight
21 Jan - 11:20:56 10° W 11:27:00 57° SSW 11:31:07 10° ESE daylight
21 Jan - 13:37:03 10° WSW 13:39:04 13° SSW 13:41:00 10° S daylight
22 Jan - 03:32:16 10° S 03:43:22 20° SSE 03:51:56 10° ESE visible
22 Jan - 05:45:03 10° SW 05:59:23 44° SSE 06:07:58 10° E visible
22 Jan - 08:02:28 10° WSW 08:14:11 71° S 08:20:39 10° E daylight
22 Jan - 10:20:07 10° W 10:27:52 72° S 10:32:35 10° ESE daylight
22 Jan - 12:36:15 10° W 12:40:15 24° SSW 12:43:33 10° SSE daylight
23 Jan - 02:34:19 10° S 02:42:20 14° SE 02:49:17 10° ESE visible
23 Jan - 04:43:49 10° SSW 04:58:47 37° SSE 05:08:29 10° E visible
23 Jan - 07:00:28 10° WSW 07:14:15 65° SSE 07:21:51 10° E daylight
23 Jan - 09:18:47 10° W 09:28:30 79° S 09:33:59 10° E daylight
23 Jan - 11:35:40 10° W 11:41:25 40° SSW 11:45:27 10° SE daylight
24 Jan - 03:43:10 10° SSW 03:57:55 30° SSE 04:08:25 10° E visible
24 Jan - 05:58:28 10° SW 06:13:58 57° SSE 06:22:52 10° E visible
24 Jan - 08:16:56 10° W 08:28:50 79° S 08:35:19 10° E daylight
24 Jan - 10:34:47 10° W 10:42:25 59° SSW 10:47:06 10° ESE daylight
24 Jan - 12:52:01 10° WSW 12:54:24 14° SW 12:56:32 10° S daylight
25 Jan - 02:43:23 10° S 02:56:50 24° SE 03:07:28 10° E visible
25 Jan - 04:56:40 10° SW 05:13:19 49° SSE 05:23:35 10° E visible
25 Jan - 07:14:44 10° WSW 07:28:52 75° S 07:36:32 10° E daylight
25 Jan - 09:33:25 10° W 09:43:07 73° S 09:48:36 10° ESE daylight
25 Jan - 11:50:38 10° W 11:55:40 26° SSW 11:59:22 10° SSE daylight
